Other Public Products
Issued by NWS Charleston, SC

Current Version | Previous Version | Graphics & Text | Print | Product List | Glossary On
Versions: 1 2 3 4 5 6 7 8 9 10 11 12 13 14 15 16 17 18 19 20 21 22 23 24 25 26 27 28 29 30 31 32 33 34 35 36 37 38 39 40 41 42 43 44 45 46 47 48 49 50
000
FPUS82 KCHS 241727
OPUCHS

TEST...KCHS/KSAV Gateway Observations...TEST
National Weather Service Charleston SC
100 PM EDT MON APR 24 2017

NOTE: "fair" indicates few or no clouds below 12,000 feet with no
significant weather and/or obstructions to visibility.

SCZ050-WAZ558-NCZ071-TXZ119-213-PAZ071-DCZ001-FLZ074-172-MI076-
NYZ176-178-MAZ016-IL014-TNZ027-NJZ106-GAZ044-MD014-241800-

...Gateway Observations for Charleston International...

CITY           SKY/WX    TMP DP  RH WIND       PRES   REMARKS
Chas Airport   PTSUNNY   78  63  59 SE10      29.64F
Seattle        CLOUDY    49  43  80 N9        29.72S
Charlotte      LGT RAIN  54  51  90 NE20G31   29.79F
Dallas DFW     PTSUNNY   73  45  36 S14       29.90F
Dallas Love    PTSUNNY   73  42  32 S9        29.91F
Philladelphia  CLOUDY    58  43  57 E10       30.12F
Wash National  LGT RAIN  57  45  64 NE15      30.06F
Baltimore      CLOUDY    58  41  53 NE15      30.07F
Miami          MOSUNNY   85  66  53 W7G17     29.78F
Detroit        MOSUNNY   65  42  43 NE9       30.05F
Newark         CLOUDY    57  43  59 SE6       30.16S
Laguardia      CLOUDY    57  45  64 NE8       30.16F
J F K          CLOUDY    55  44  66 SE10      30.17F
Boston Logan   CLOUDY    59  44  57 E8        30.16F
Ft. Lauderdale MOSUNNY   84  68  58 W12       29.77F
Chicago O`Hare PTSUNNY   69  28  21 SE12      29.96F
Chicago Midway PTSUNNY   69  35  28 E14       29.97F
Houston Bush   MOSUNNY   75  49  39 CALM      29.95F
Houston Hobby  MOSUNNY   73  49  42 SW9       29.95F
Nashville      PTSUNNY   66  55  67 N10G17    29.85F
Atlanta        DRIZZLE   57  54  89 N8        29.77F FOG

$$

GAZ044-118-TXZ119-213-NCZ071-DCZ001-MDZ014-506-PAZ021-071-NJZ106-
NYZ176-178-MAZ106-OHZ011-021-055-MIZ076-KYZ091-ILZ014-INZ047-
MNZ060-ONZ431-241800-

...Gateway Observations for Savannah International...

CITY           SKY/WX    TMP DP  RH WIND       PRES   REMARKS
Savannah Arpt  PTSUNNY   77  54  44 W14       29.67F
Atlanta        DRIZZLE   57  54  89 N8        29.77F FOG
Charlotte      LGT RAIN  54  51  90 NE20G31   29.79F
Dallas DFW     PTSUNNY   73  45  36 S14       29.90F
Houston Bush   MOSUNNY   75  49  39 CALM      29.95F
Wash National  LGT RAIN  57  45  64 NE15      30.06F
Wash Dulles    LGT RAIN  57  41  55 NE14      30.05F
Baltimore      CLOUDY    58  41  53 NE15      30.07F
Philadelphia   CLOUDY    58  43  57 E10       30.12F
Newark         CLOUDY    57  43  59 SE6       30.16S
Laguardia      CLOUDY    57  45  64 NE8       30.16F
J F K          CLOUDY    55  44  66 SE10      30.17F
Boston         CLOUDY    59  44  57 E8        30.16F
Pittsburg      PTSUNNY   63  43  48 SE17      30.02F
Akron          SUNNY     69  38  32 SE16G22   30.00S
Cleveland      SUNNY     65  42  43 N14       30.03S
Cincinnati     SUNNY     68  43  40 NE13      29.89F
Columbus       SUNNY     67  48  49 E10G21    29.92R
Detroit        MOSUNNY   65  42  43 NE9       30.05F
Chicago O`Hare PTSUNNY   69  28  21 SE12      29.96F
Minneapolis    CLOUDY    64  33  31 S18G28    29.73F
Indianapolis   MOSUNNY   71  36  27 NE13      29.92F
Toronto Canada MOSUNNY   52  32  46 E10G17    30.17F

$$




USA.gov is the U.S. government's official web portal to all federal, state and local government web resources and services.